Location: Winthrop
(48.4780°N, 120.1850°W)
Time: 06:51:49
(UTC-08:00)

X-37B - Visible Passes

Search period start: 03 December 2022 00:00
Search period end: 13 December 2022 00:00
Orbit: 277 x 277 km, 45.0° (Epoch: 01 November)

Date Brightness Start Highest point End Pass type
(mag) Time Alt. Az. Time Alt. Az. Time Alt. Az.
08 Dec 3.4 18:33:31 10° SW 18:33:37 11° SW 18:33:37 11° SW visible
09 Dec 2.7 17:01:38 10° S 17:02:27 11° SSE 17:03:16 10° SE visible
09 Dec 3.3 18:33:57 10° SW 18:34:18 13° SW 18:34:18 13° SW visible
10 Dec 2.3 17:01:19 10° SSW 17:02:57 16° SSE 17:04:36 10° ESE visible
10 Dec 3.3 18:34:29 10° WSW 18:34:57 14° WSW 18:34:57 14° WSW visible
11 Dec 1.9 17:01:30 10° SW 17:03:30 22° SSE 17:05:30 10° ESE visible
11 Dec 3.3 18:35:05 10° WSW 18:35:35 14° WSW 18:35:35 14° WSW visible
12 Dec 1.5 17:01:54 10° SW 17:04:05 28° SSE 17:06:12 10° ESE visible
12 Dec 3.4 18:35:43 10° WSW 18:36:14 14° WSW 18:36:14 14° WSW visible
